QPF
0.04 0.03 0.04 0.03 0.02 0.01 0.01 0.01 0.01 0.01 0.01 0.02 0.01 0.02 0.02 0.02 0.02 0.03 0.03 0.02 0.02 0.03 0.05 0.04 0.03 0.03 0.02 0.02 0.04 0.05 0.05 0.04 0.05 0.07 0.08 0.08 0.08 0.07 0.08 0.07 0.08 0.05 0.07
0.02 0.02 0.03 0.03 0.01 0.01 0.01 0.01 0.02 0.02 0.02 0.03 0.02 0.02 0.01 0.02 0.02 0.03 0.03 0.02 0.02 0.02 0.03 0.04 0.03 0.01 0.01 0.02 0.03 0.04 0.04 0.04 0.07 0.07 0.08 0.09 0.10 0.09 0.08 0.08 0.08 0.06 0.06
0.02 0.01 0.02 0.02 0.02 0.01 0.02 0.02 0.02 0.02 0.02 0.03 0.02 0.02 0.02 0.02 0.02 0.02 0.03 0.02 0.02 0.02 0.02 0.03 0.02 0.02 0.02 0.02 0.02 0.03 0.02 0.03 0.06 0.07 0.09 0.08 0.09 0.10 0.09 0.09 0.08 0.07 0.06
0.03 0.02 0.01 0.02 0.02 0.02 0.03 0.03 0.02 0.01 0.02 0.01 0.02 0.03 0.02 0.01 0.01 0.01 0.02 0.01 0.01 0.02 0.03 0.03 0.02 0.02 0.02 0.03 0.03 0.03 0.02 0.02 0.04 0.05 0.05 0.05 0.06 0.10 0.09 0.10 0.09 0.07 0.05
0.02 0.02 0.01 0.01 0.01 0.01 0.01 0.02 0.02 0.03 0.03 0.01 0.01 0.02 0.02 0.01 0.02 0.01 0.02 0.02 0.02 0.03 0.02 0.03 0.03 0.02 0.02 0.03 0.04 0.03 0.03 0.02 0.03 0.02 0.01 0.02 0.04 0.09 0.07 0.08 0.06 0.05 0.05
0.01 0.01 0.01 0.02 0.02 0.03 0.02 0.01 0.02 0.02 0.02 0.02 0.02 0.02 0.02 0.02 0.02 0.02 0.02 0.03 0.03 0.04 0.03 0.02 0.02 0.02 0.03 0.03 0.04 0.04 0.04 0.03 0.02 0.01 0.01 0.02 0.04 0.07 0.06 0.04 0.03 0.04 0.04
0.01 0.01 0.02 0.03 0.03 0.03 0.03 0.02 0.01 0.01 0.01 0.01 0.01 0.01 0.02 0.02 0.02 0.02 0.02 0.03 0.04 0.04 0.03 0.02 0.02 0.02 0.04 0.03 0.03 0.04 0.05 0.05 0.02 0.02 0.02 0.01 0.03 0.06 0.04 0.03 0.03 0.03 0.04
0.01 0.02 0.03 0.04 0.04 0.04 0.03 0.03 0.02 0.01 0.02 0.02 0.01 0.01 0.01 0.01 0.01 0.02 0.03 0.04 0.04 0.03 0.02 0.03 0.02 0.03 0.03 0.04 0.04 0.04 0.05 0.03 0.02 0.02 0.01 0.01 0.04 0.04 0.03 0.04 0.04 0.03 0.03
0.01 0.02 0.04 0.04 0.04 0.04 0.04 0.04 0.03 0.03 0.02 0.02 0.02 0.02 0.02 0.02 0.02 0.02 0.04 0.04 0.04 0.03 0.02 0.02 0.03 0.03 0.03 0.03 0.03 0.04 0.05 0.03 0.01 0.02 0.01 0.02 0.06 0.04 0.03 0.03 0.02 0.02 0.03
0.01 0.01 0.01 0.04 0.05 0.02 0.03 0.04 0.04 0.03 0.03 0.03 0.03 0.03 0.03 0.03 0.04 0.04 0.04 0.04 0.04 0.04 0.03 0.03 0.04 0.04 0.03 0.03 0.03 0.05 0.04 0.03 0.01 0.01 0.02 0.03 0.06 0.06 0.04 0.03 0.03 0.02 0.03
0.01 0.01 0.01 0.02 0.05 0.03 0.05 0.06 0.03 0.03 0.03 0.03 0.03 0.03 0.02 0.01 0.01 0.02 0.04 0.04 0.05 0.05 0.05 0.05 0.05 0.05 0.04 0.03 0.03 0.04 0.03 0.01 0.01 0.01 0.02 0.06 0.07 0.08 0.06 0.03 0.02 0.03 0.04
0.01 0.01 0.01 0.01 0.02 0.02 0.02 0.03 0.02 0.01 0.01 0.01 0.02 0.03 0.02 0.01 0.01 0.02 0.04 0.05 0.05 0.05 0.05 0.06 0.05 0.05 0.03 0.03 0.04 0.03 0.02 0.01 0.01 0.01 0.03 0.09 0.08 0.08 0.05 0.03 0.04 0.03 0.04
0.00 0.01 0.01 0.01 0.02 0.02 0.02 0.02 0.03 0.02 0.01 0.02 0.03 0.03 0.03 0.01 0.01 0.02 0.02 0.03 0.03 0.02 0.02 0.02 0.02 0.02 0.01 0.02 0.03 0.02 0.01 0.01 0.01 0.01 0.03 0.08 0.09 0.07 0.05 0.04 0.05 0.05 0.06
0.00 0.00 0.01 0.01 0.01 0.02 0.01 0.01 0.02 0.03 0.02 0.02 0.01 0.02 0.02 0.02 0.01 0.01 0.02 0.02 0.02 0.02 0.02 0.02 0.01 0.01 0.01 0.02 0.02 0.01 0.01 0.01 0.01 0.01 0.02 0.05 0.08 0.08 0.06 0.04 0.05 0.06 0.08
0.01 0.01 0.01 0.01 0.01 0.02 0.01 0.01 0.01 0.01 0.01 0.02 0.02 0.02 0.01 0.02 0.03 0.02 0.02 0.03 0.03 0.03 0.03 0.03 0.04 0.03 0.02 0.02 0.02 0.01 0.02 0.02 0.01 0.01 0.02 0.05 0.08 0.10 0.06 0.05 0.06 0.07 0.10
0.02 0.02 0.01 0.01 0.01 0.02 0.02 0.02 0.01 0.02 0.01 0.03 0.04 0.03 0.02 0.02 0.03 0.04 0.04 0.03 0.03 0.03 0.03 0.03 0.04 0.02 0.01 0.02 0.03 0.03 0.02 0.02 0.01 0.01 0.01 0.03 0.04 0.07 0.08 0.08 0.06 0.08 0.10
0.03 0.03 0.02 0.02 0.01 0.01 0.02 0.02 0.03 0.03 0.03 0.03 0.03 0.04 0.02 0.02 0.03 0.04 0.04 0.04 0.04 0.03 0.02 0.03 0.02 0.02 0.02 0.02 0.02 0.02 0.01 0.02 0.02 0.01 0.01 0.02 0.02 0.05 0.08 0.07 0.06 0.07 0.09
0.03 0.04 0.03 0.02 0.02 0.01 0.02 0.02 0.03 0.03 0.05 0.04 0.04 0.04 0.03 0.03 0.02 0.03 0.03 0.04 0.05 0.04 0.02 0.02 0.02 0.01 0.01 0.01 0.01 0.01 0.02 0.03 0.02 0.01 0.01 0.01 0.01 0.02 0.04 0.06 0.07 0.06 0.06
0.02 0.04 0.04 0.02 0.02 0.01 0.01 0.02 0.03 0.06 0.09 0.08 0.06 0.05 0.04 0.03 0.02 0.02 0.02 0.03 0.03 0.03 0.02 0.02 0.01 0.01 0.02 0.01 0.00 0.00 0.01 0.01 0.02 0.02 0.01 0.01 0.01 0.01 0.01 0.02 0.03 0.03 0.03
0.01 0.03 0.05 0.04 0.02 0.02 0.02 0.02 0.04 0.06 0.07 0.08 0.06 0.04 0.03 0.02 0.02 0.03 0.02 0.02 0.03 0.02 0.01 0.01 0.01 0.02 0.02 0.01 0.01 0.00 0.01 0.01 0.02 0.02 0.02 0.01 0.02 0.01 0.01 0.00 0.01 0.01 0.03
0.00 0.01 0.04 0.04 0.03 0.02 0.02 0.02 0.03 0.04 0.06 0.07 0.07 0.09 0.04 0.02 0.03 0.02 0.02 0.03 0.02 0.02 0.02 0.01 0.02 0.02 0.02 0.01 0.01 0.00 0.01 0.01 0.02 0.03 0.03 0.02 0.03 0.02 0.01 0.00 0.00 0.00 0.01
0.00 0.00 0.01 0.02 0.02 0.02 0.02 0.03 0.03 0.03 0.05 0.06 0.06 0.10 0.06 0.04 0.03 0.02 0.02 0.03 0.02 0.02 0.02 0.01 0.01 0.02 0.02 0.01 0.00 0.00 0.01 0.01 0.03 0.04 0.03 0.03 0.03 0.02 0.01 0.01 0.00 0.00 0.00
0.00 0.00 0.00 0.01 0.02 0.02 0.04 0.04 0.04 0.03 0.03 0.05 0.06 0.07 0.07 0.04 0.04 0.04 0.03 0.02 0.02 0.02 0.02 0.01 0.01 0.02 0.01 0.01 0.00 0.00 0.00 0.01 0.01 0.02 0.02 0.02 0.03 0.03 0.02 0.01 0.01 0.00 0.00
0.00 0.00 0.00 0.00 0.01 0.01 0.02 0.03 0.03 0.03 0.03 0.03 0.03 0.04 0.05 0.04 0.04 0.04 0.04 0.03 0.02 0.02 0.02 0.01 0.01 0.01 0.01 0.01 0.01 0.00 0.00 0.00 0.00 0.01 0.01 0.01 0.01 0.02 0.02 0.01 0.01 0.01 0.01
0.00 0.01 0.00 0.00 0.00 0.01 0.02 0.02 0.03 0.03 0.03 0.03 0.03 0.04 0.04 0.04 0.04 0.05 0.05 0.04 0.03 0.02 0.02 0.02 0.01 0.01 0.01 0.01 0.01 0.01 0.00 0.00 0.00 0.00 0.01 0.01 0.00 0.01 0.01 0.01 0.01 0.01 0.00
0.00 0.00 0.01 0.01 0.01 0.01 0.01 0.02 0.02 0.03 0.03 0.03 0.03 0.04 0.04 0.05 0.06 0.06 0.05 0.04 0.02 0.02 0.02 0.02 0.02 0.03 0.02 0.01 0.01 0.01 0.01 0.00 0.00 0.01 0.01 0.01 0.00 0.00 0.01 0.01 0.00 0.00 0.00
MSLP
1015.33 1014.62 1014.03 1013.61 1013.36 1013.23 1013.16 1013.07 1012.91 1012.66 1012.31 1011.93 1011.56 1011.25 1011.04 1010.94 1010.92 1010.96 1011.02 1011.06 1011.08 1011.08 1011.07 1011.08 1011.14 1011.23 1011.38 1011.54 1011.71 1011.85 1011.96 1012.03 1012.09 1012.13 1012.19 1012.27 1012.37 1012.48 1012.60 1012.71 1012.81 1012.89 1012.96
1015.09 1014.45 1013.94 1013.58 1013.38 1013.27 1013.20 1013.10 1012.91 1012.64 1012.30 1011.93 1011.59 1011.32 1011.15 1011.06 1011.04 1011.05 1011.06 1011.03 1010.99 1010.93 1010.89 1010.90 1010.96 1011.10 1011.27 1011.47 1011.67 1011.83 1011.95 1012.03 1012.10 1012.17 1012.26 1012.36 1012.49 1012.63 1012.76 1012.87 1012.95 1013.01 1013.06
1014.67 1014.12 1013.69 1013.42 1013.27 1013.21 1013.16 1013.06 1012.89 1012.62 1012.30 1011.97 1011.67 1011.44 1011.29 1011.21 1011.16 1011.11 1011.04 1010.93 1010.81 1010.69 1010.62 1010.62 1010.70 1010.87 1011.10 1011.34 1011.58 1011.77 1011.92 1012.04 1012.14 1012.24 1012.36 1012.50 1012.66 1012.81 1012.95 1013.05 1013.11 1013.15 1013.19
1014.11 1013.66 1013.33 1013.15 1013.08 1013.08 1013.07 1013.01 1012.86 1012.62 1012.34 1012.04 1011.79 1011.59 1011.45 1011.35 1011.26 1011.14 1010.98 1010.78 1010.58 1010.40 1010.30 1010.30 1010.42 1010.63 1010.91 1011.21 1011.49 1011.73 1011.92 1012.08 1012.21 1012.35 1012.51 1012.68 1012.86 1013.02 1013.15 1013.24 1013.29 1013.31 1013.33
1013.47 1013.12 1012.91 1012.83 1012.86 1012.94 1012.99 1012.96 1012.85 1012.65 1012.40 1012.14 1011.91 1011.73 1011.59 1011.46 1011.32 1011.13 1010.90 1010.63 1010.36 1010.15 1010.04 1010.05 1010.20 1010.46 1010.79 1011.14 1011.47 1011.75 1011.98 1012.17 1012.34 1012.51 1012.70 1012.89 1013.08 1013.24 1013.36 1013.43 1013.46 1013.46 1013.47
1012.84 1012.60 1012.50 1012.54 1012.67 1012.82 1012.93 1012.95 1012.87 1012.69 1012.46 1012.23 1012.01 1011.84 1011.69 1011.54 1011.36 1011.13 1010.84 1010.53 1010.23 1010.01 1009.91 1009.95 1010.14 1010.44 1010.81 1011.20 1011.56 1011.87 1012.12 1012.33 1012.52 1012.71 1012.91 1013.11 1013.30 1013.45 1013.55 1013.60 1013.61 1013.60 1013.60
1012.31 1012.17 1012.18 1012.33 1012.55 1012.77 1012.93 1012.97 1012.90 1012.73 1012.51 1012.28 1012.07 1011.90 1011.75 1011.59 1011.40 1011.15 1010.85 1010.54 1010.25 1010.05 1009.98 1010.05 1010.27 1010.60 1011.00 1011.40 1011.77 1012.08 1012.33 1012.55 1012.74 1012.93 1013.12 1013.31 1013.48 1013.62 1013.70 1013.73 1013.73 1013.71 1013.72
1011.95 1011.89 1012.00 1012.23 1012.52 1012.79 1012.96 1013.01 1012.93 1012.76 1012.53 1012.29 1012.09 1011.92 1011.78 1011.63 1011.46 1011.23 1010.96 1010.68 1010.44 1010.28 1010.25 1010.36 1010.60 1010.95 1011.34 1011.73 1012.08 1012.37 1012.61 1012.80 1012.97 1013.14 1013.31 1013.48 1013.62 1013.73 1013.79 1013.81 1013.81 1013.80 1013.82
1011.76 1011.77 1011.95 1012.25 1012.57 1012.85 1013.02 1013.05 1012.95 1012.75 1012.51 1012.27 1012.07 1011.92 1011.81 1011.70 1011.56 1011.39 1011.18 1010.96 1010.78 1010.67 1010.68 1010.82 1011.07 1011.41 1011.78 1012.13 1012.45 1012.70 1012.89 1013.05 1013.19 1013.32 1013.46 1013.59 1013.70 1013.79 1013.83 1013.85 1013.85 1013.86 1013.90
1011.72 1011.79 1012.02 1012.34 1012.67 1012.94 1013.08 1013.07 1012.94 1012.72 1012.46 1012.22 1012.04 1011.92 1011.85 1011.79 1011.72 1011.61 1011.47 1011.33 1011.21 1011.15 1011.20 1011.35 1011.59 1011.90 1012.23 1012.54 1012.81 1013.01 1013.16 1013.27 1013.37 1013.46 1013.55 1013.65 1013.73 1013.80 1013.83 1013.86 1013.87 1013.91 1013.99
1011.79 1011.90 1012.15 1012.47 1012.78 1013.01 1013.11 1013.07 1012.90 1012.66 1012.41 1012.19 1012.03 1011.96 1011.94 1011.94 1011.93 1011.89 1011.82 1011.73 1011.66 1011.64 1011.70 1011.85 1012.08 1012.35 1012.64 1012.91 1013.12 1013.28 1013.39 1013.46 1013.51 1013.56 1013.62 1013.68 1013.74 1013.79 1013.83 1013.86 1013.91 1013.98 1014.09
1011.90 1012.03 1012.29 1012.59 1012.87 1013.05 1013.11 1013.03 1012.85 1012.60 1012.37 1012.18 1012.07 1012.04 1012.07 1012.12 1012.17 1012.18 1012.16 1012.12 1012.08 1012.08 1012.15 1012.28 1012.48 1012.73 1012.98 1013.21 1013.39 1013.52 1013.60 1013.64 1013.66 1013.67 1013.69 1013.71 1013.75 1013.79 1013.84 1013.90 1013.98 1014.09 1014.24
1012.01 1012.16 1012.40 1012.67 1012.90 1013.04 1013.06 1012.97 1012.78 1012.56 1012.36 1012.21 1012.15 1012.17 1012.24 1012.33 1012.41 1012.46 1012.47 1012.45 1012.43 1012.43 1012.49 1012.62 1012.80 1013.02 1013.25 1013.47 1013.63 1013.75 1013.82 1013.84 1013.83 1013.82 1013.80 1013.80 1013.82 1013.85 1013.91 1014.00 1014.11 1014.27 1014.45
1012.10 1012.26 1012.47 1012.71 1012.89 1012.99 1012.99 1012.89 1012.73 1012.55 1012.39 1012.30 1012.28 1012.33 1012.43 1012.54 1012.64 1012.70 1012.72 1012.71 1012.70 1012.71 1012.77 1012.89 1013.07 1013.28 1013.52 1013.73 1013.91 1014.04 1014.10 1014.12 1014.10 1014.06 1014.02 1013.99 1013.98 1014.01 1014.07 1014.18 1014.33 1014.51 1014.72
1012.18 1012.32 1012.51 1012.70 1012.84 1012.92 1012.91 1012.84 1012.71 1012.58 1012.47 1012.42 1012.43 1012.50 1012.61 1012.72 1012.82 1012.88 1012.91 1012.91 1012.91 1012.94 1013.02 1013.16 1013.35 1013.59 1013.84 1014.08 1014.28 1014.43 1014.51 1014.52 1014.50 1014.43 1014.36 1014.30 1014.27 1014.29 1014.35 1014.47 1014.64 1014.84 1015.07
1012.27 1012.38 1012.53 1012.67 1012.79 1012.85 1012.86 1012.82 1012.75 1012.67 1012.61 1012.59 1012.61 1012.67 1012.76 1012.86 1012.95 1013.01 1013.05 1013.08 1013.11 1013.18 1013.30 1013.48 1013.71 1013.98 1014.27 1014.55 1014.78 1014.96 1015.06 1015.08 1015.04 1014.96 1014.86 1014.77 1014.71 1014.70 1014.76 1014.87 1015.05 1015.25 1015.47
1012.39 1012.46 1012.55 1012.65 1012.75 1012.82 1012.86 1012.87 1012.85 1012.81 1012.79 1012.77 1012.79 1012.83 1012.89 1012.96 1013.03 1013.10 1013.16 1013.24 1013.34 1013.47 1013.66 1013.89 1014.18 1014.50 1014.83 1015.15 1015.41 1015.61 1015.73 1015.76 1015.71 1015.61 1015.49 1015.37 1015.28 1015.24 1015.28 1015.38 1015.54 1015.73 1015.93
1012.55 1012.56 1012.60 1012.67 1012.75 1012.84 1012.92 1012.98 1013.02 1013.02 1013.01 1012.99 1012.97 1012.97 1012.98 1013.02 1013.08 1013.17 1013.28 1013.43 1013.61 1013.83 1014.09 1014.40 1014.75 1015.11 1015.48 1015.83 1016.12 1016.34 1016.47 1016.51 1016.47 1016.35 1016.21 1016.07 1015.95 1015.89 1015.89 1015.96 1016.09 1016.26 1016.42
1012.75 1012.69 1012.68 1012.72 1012.82 1012.94 1013.07 1013.19 1013.27 1013.30 1013.29 1013.25 1013.18 1013.11 1013.08 1013.08 1013.13 1013.25 1013.42 1013.65 1013.92 1014.23 1014.58 1014.96 1015.36 1015.76 1016.15 1016.51 1016.82 1017.06 1017.20 1017.26 1017.22 1017.12 1016.97 1016.82 1016.68 1016.59 1016.57 1016.60 1016.69 1016.81 1016.94
1012.98 1012.85 1012.80 1012.83 1012.94 1013.11 1013.29 1013.47 1013.59 1013.65 1013.63 1013.55 1013.42 1013.29 1013.20 1013.17 1013.22 1013.36 1013.60 1013.91 1014.27 1014.66 1015.08 1015.51 1015.94 1016.35 1016.75 1017.11 1017.42 1017.67 1017.83 1017.91 1017.91 1017.83 1017.71 1017.56 1017.43 1017.32 1017.27 1017.26 1017.30 1017.37 1017.45
1013.20 1013.03 1012.95 1012.98 1013.12 1013.34 1013.58 1013.81 1013.98 1014.06 1014.02 1013.90 1013.72 1013.53 1013.38 1013.32 1013.37 1013.54 1013.82 1014.19 1014.62 1015.07 1015.53 1015.98 1016.40 1016.81 1017.18 1017.53 1017.84 1018.09 1018.29 1018.41 1018.46 1018.44 1018.36 1018.24 1018.12 1018.01 1017.94 1017.90 1017.89 1017.91 1017.94
1013.42 1013.22 1013.13 1013.17 1013.34 1013.61 1013.91 1014.20 1014.40 1014.49 1014.45 1014.30 1014.07 1013.83 1013.65 1013.56 1013.60 1013.79 1014.10 1014.50 1014.96 1015.43 1015.89 1016.32 1016.71 1017.07 1017.41 1017.73 1018.03 1018.31 1018.54 1018.72 1018.84 1018.89 1018.88 1018.82 1018.73 1018.63 1018.54 1018.47 1018.43 1018.40 1018.38
1013.62 1013.41 1013.32 1013.39 1013.59 1013.90 1014.25 1014.58 1014.82 1014.93 1014.89 1014.72 1014.46 1014.20 1013.99 1013.88 1013.92 1014.10 1014.42 1014.83 1015.28 1015.73 1016.15 1016.52 1016.85 1017.15 1017.43 1017.72 1018.01 1018.30 1018.59 1018.84 1019.04 1019.17 1019.24 1019.25 1019.20 1019.12 1019.03 1018.95 1018.87 1018.80 1018.75
1013.82 1013.62 1013.54 1013.61 1013.84 1014.17 1014.56 1014.92 1015.19 1015.32 1015.29 1015.12 1014.87 1014.59 1014.38 1014.27 1014.30 1014.47 1014.78 1015.16 1015.57 1015.96 1016.31 1016.61 1016.85 1017.08 1017.30 1017.55 1017.83 1018.15 1018.47 1018.79 1019.07 1019.29 1019.44 1019.51 1019.52 1019.47 1019.39 1019.29 1019.19 1019.09 1019.01
1014.02 1013.83 1013.76 1013.84 1014.07 1014.41 1014.81 1015.18 1015.46 1015.61 1015.60 1015.46 1015.23 1014.98 1014.78 1014.68 1014.71 1014.88 1015.15 1015.48 1015.83 1016.15 1016.42 1016.62 1016.79 1016.93 1017.10 1017.31 1017.59 1017.91 1018.28 1018.65 1019.00 1019.28 1019.50 1019.63 1019.68 1019.66 1019.59 1019.49 1019.38 1019.27 1019.17
1014.23 1014.06 1013.99 1014.06 1014.27 1014.59 1014.97 1015.34 1015.62 1015.79 1015.81 1015.70 1015.51 1015.31 1015.15 1015.07 1015.12 1015.27 1015.51 1015.80 1016.08 1016.32 1016.50 1016.63 1016.71 1016.80 1016.92 1017.10 1017.36 1017.69 1018.07 1018.47 1018.85 1019.18 1019.44 1019.60 1019.68 1019.69 1019.64 1019.56 1019.45 1019.35 1019.24
Thickness
5760 5764 5764 5764 5764 5764 5764 5764 5765 5765 5765 5765 5766 5766 5766 5766 5766 5765 5765 5765 5765 5764 5764 5764 5764 5764 5764 5764 5764 5764 5764 5764 5764 5763 5763 5762 5762 5763 5762 5762 5761 5761 5761
5763 5763 5763 5763 5762 5762 5762 5762 5763 5763 5763 5763 5763 5763 5763 5763 5763 5762 5762 5762 5762 5762 5761 5761 5761 5761 5761 5761 5761 5761 5761 5761 5761 5760 5760 5760 5760 5760 5760 5759 5759 5759 5759
5763 5762 5761 5761 5760 5760 5760 5760 5760 5760 5760 5760 5760 5760 5760 5760 5760 5759 5759 5759 5759 5759 5759 5758 5758 5758 5758 5758 5758 5758 5758 5758 5758 5757 5757 5756 5757 5757 5757 5757 5756 5756 5756
5762 5760 5759 5759 5758 5758 5758 5758 5758 5758 5758 5757 5757 5757 5757 5757 5757 5757 5757 5756 5756 5756 5756 5755 5755 5755 5755 5755 5755 5755 5755 5755 5754 5754 5753 5753 5753 5754 5754 5754 5754 5754 5754
5760 5759 5758 5757 5756 5756 5755 5755 5755 5755 5754 5754 5754 5754 5754 5754 5754 5754 5753 5753 5753 5753 5752 5752 5752 5752 5752 5752 5752 5752 5751 5751 5751 5750 5750 5750 5750 5750 5751 5750 5750 5751 5751
5758 5757 5756 5755 5754 5753 5753 5752 5752 5752 5751 5751 5751 5751 5751 5751 5750 5750 5750 5750 5750 5750 5749 5749 5749 5749 5749 5749 5748 5748 5748 5747 5747 5747 5746 5746 5746 5747 5747 5747 5747 5747 5748
5756 5755 5754 5753 5752 5751 5750 5750 5749 5749 5748 5748 5748 5748 5747 5747 5747 5746 5746 5746 5746 5746 5746 5746 5746 5745 5745 5745 5745 5744 5744 5744 5743 5743 5743 5743 5743 5743 5743 5743 5744 5744 5744
5754 5752 5751 5750 5750 5749 5748 5747 5746 5746 5746 5745 5745 5744 5744 5744 5743 5743 5743 5743 5743 5742 5742 5742 5742 5741 5741 5741 5741 5740 5740 5740 5739 5739 5739 5739 5739 5739 5739 5739 5740 5740 5740
5753 5750 5749 5748 5747 5746 5746 5745 5744 5744 5743 5742 5742 5741 5741 5740 5740 5739 5739 5739 5739 5739 5738 5738 5738 5737 5737 5737 5736 5736 5735 5735 5735 5735 5735 5735 5736 5736 5736 5736 5736 5736 5736
5750 5748 5747 5745 5744 5744 5743 5742 5742 5741 5740 5740 5739 5738 5737 5737 5736 5736 5736 5736 5735 5735 5735 5734 5734 5733 5733 5732 5731 5731 5730 5730 5730 5730 5731 5731 5732 5732 5732 5732 5732 5732 5732
5745 5745 5744 5743 5742 5741 5740 5739 5739 5738 5737 5736 5736 5735 5734 5733 5733 5732 5732 5732 5732 5731 5731 5730 5729 5729 5728 5728 5727 5726 5725 5725 5725 5726 5727 5727 5727 5727 5727 5728 5728 5728 5728
5739 5741 5742 5741 5740 5738 5737 5736 5735 5735 5734 5733 5732 5732 5731 5730 5729 5729 5729 5728 5728 5727 5726 5726 5725 5724 5723 5723 5722 5721 5721 5720 5720 5721 5722 5723 5723 5723 5723 5723 5723 5723 5723
5740 5740 5740 5739 5738 5736 5735 5734 5733 5732 5731 5730 5729 5729 5727 5727 5726 5725 5725 5724 5724 5723 5722 5721 5720 5719 5718 5718 5717 5717 5716 5715 5715 5716 5717 5718 5718 5718 5718 5718 5718 5718 5718
5738 5738 5738 5738 5736 5735 5734 5732 5731 5729 5728 5727 5727 5726 5725 5723 5722 5722 5721 5720 5720 5718 5717 5716 5715 5714 5713 5713 5712 5712 5711 5710 5710 5711 5712 5713 5713 5713 5713 5713 5713 5713 5713
5736 5736 5737 5736 5734 5732 5731 5730 5729 5727 5726 5725 5724 5723 5722 5721 5719 5718 5717 5716 5715 5714 5713 5712 5711 5710 5709 5708 5707 5707 5706 5705 5705 5706 5707 5707 5708 5708 5708 5708 5708 5708 5708
5734 5734 5734 5734 5733 5731 5729 5728 5727 5725 5724 5723 5722 5721 5720 5719 5717 5716 5714 5712 5711 5710 5709 5708 5707 5706 5705 5703 5702 5702 5702 5701 5701 5701 5701 5702 5702 5702 5702 5702 5703 5703 5702
5733 5733 5732 5732 5731 5729 5728 5726 5724 5723 5721 5720 5720 5719 5718 5717 5715 5713 5711 5709 5708 5707 5706 5705 5703 5702 5701 5699 5698 5697 5697 5696 5696 5696 5696 5696 5696 5696 5696 5696 5697 5697 5697
5733 5731 5731 5731 5728 5727 5725 5724 5722 5720 5719 5718 5717 5717 5715 5714 5712 5711 5708 5707 5705 5704 5702 5701 5699 5697 5695 5694 5693 5692 5692 5691 5691 5691 5691 5690 5690 5690 5690 5690 5691 5691 5691
5732 5730 5728 5728 5726 5724 5723 5721 5719 5718 5717 5715 5715 5714 5713 5711 5710 5708 5706 5705 5703 5701 5699 5698 5695 5693 5691 5689 5689 5688 5687 5686 5686 5686 5685 5685 5685 5685 5684 5684 5685 5685 5686
5731 5729 5727 5725 5723 5722 5720 5718 5716 5715 5714 5712 5711 5711 5710 5709 5707 5706 5704 5702 5701 5698 5696 5694 5691 5690 5688 5687 5686 5683 5682 5682 5682 5681 5680 5680 5679 5679 5679 5679 5679 5679 5680
5727 5726 5723 5721 5720 5718 5716 5713 5710 5709 5709 5709 5708 5708 5708 5707 5705 5704 5701 5699 5698 5696 5693 5691 5688 5685 5683 5683 5680 5675 5675 5677 5676 5676 5676 5675 5674 5674 5674 5674 5674 5674 5674
5723 5722 5721 5719 5717 5716 5714 5712 5710 5708 5706 5706 5706 5705 5705 5704 5703 5701 5699 5697 5695 5693 5690 5688 5686 5681 5680 5680 5676 5670 5666 5666 5669 5671 5671 5670 5670 5670 5670 5669 5669 5669 5669
5720 5719 5719 5717 5715 5714 5713 5711 5708 5705 5703 5702 5701 5701 5702 5702 5701 5700 5698 5696 5693 5691 5688 5687 5685 5681 5677 5677 5677 5671 5663 5659 5661 5664 5665 5666 5666 5665 5665 5665 5664 5664 5664
5717 5717 5716 5714 5713 5711 5710 5707 5704 5700 5696 5697 5698 5698 5699 5699 5699 5698 5696 5694 5692 5690 5688 5686 5685 5682 5678 5674 5674 5674 5671 5667 5660 5656 5658 5660 5661 5661 5661 5660 5660 5659 5660
5716 5714 5713 5711 5710 5708 5707 5705 5702 5699 5697 5696 5696 5696 5696 5696 5695 5695 5694 5692 5690 5689 5687 5686 5684 5681 5679 5676 5673 5671 5669 5666 5663 5657 5652 5653 5654 5656 5656 5656 5656 5656 5656
5712 5711 5709 5707 5705 5705 5703 5701 5699 5696 5695 5693 5692 5692 5692 5692 5692 5692 5691 5690 5689 5688 5686 5685 5683 5681 5679 5677 5675 5672 5669 5665 5661 5658 5652 5650 5649 5650 5651 5652 5652 5652 5651